STARLINK-32398, 61624

Orbit data source: Space-Track

STARLINK-32398, 61624 is a payload satellite owned by SpaceX/Seattle (US) in LEO that was launched on Wed, 23 Oct 2024 UTC via an FALCON 9 launch vehicle from the Air Force Eastern Test Range (AFETR). Payload-class satellites include a variety of spacecraft equipped with specific instruments for various scientific and technological missions. These include communications satellites like Starlink; space stations such as the ISS; scientific satellites like the Hubble; Earth observation satellites from companies like Planet Labs, Umbra, and HawkEye 360; GPS; miniature CubeSats for education and research; and military/defense satellites.

Loading next visibility...
Identifier
61624, 2024-191D
Orbit
LEO
Country
Flag of USUS
Related business
Manufacturer
SpaceX/Seattle
Mission
Operational Commercial Communications
Bus & Motor
STARLINK V2M, Unknown motor
Mass
730 kg wet, ~700 kg dry
Launch date (UTC)
2024-10-23 (2 years ago)
Launch vehicle
FALCON 9
Launch site
Air Force Eastern Test Range (AFETR)
Object type
Payload
Rocket body
Debris
Shape & HBR
Box + 2 Pan, 17.7 m
Radar Cross Section
33.884 m², Large (>1 m²)

Expand to show TLE details & history
Last TLE update: 1 day ago

TLE from 1 day ago
0 STARLINK-32398
1 61624U 24191D   26170.34963291  .00000924  00000-0  43084-4 0  9997
2 61624  43.0023 300.4121 0000985 257.2343 102.8399 15.27578652 93082
Epoch: 2026-06-19T08:23Z
TLE epoch observation values (Epoch: 2026-06-19T08:23:28.283Z)
Latitude
0.00001°
Longitude
-93.03561°
Altitude
482.979 km
Speed
7.626 km/s
True Right ascension
20h 01m 38s
True Declination
0° 00' 00"
Sunlit
Object was in full shadow at epoch
Visualization orbit readout
Latitude
Unknown
Longitude
Unknown
Altitude
Unknown
Speed
Unknown
Apparent Right ascension
Unknown
Apparent Declination
Unknown
Sunlit
N/A
Visualization observer readout
Local Sidereal Time
02:08:11
Azimuth
Unknown
Elevation
Unknown
Doppler factor
Unknown
Orbital elements
Apogee altitude
485.674 km
Perigee altitude
484.322 km
Semi-major axis
6,863.135 km
Eccentricity
0.0001
Inclination
43.0023°
RAAN
300.4121°
Arg. of periapsis
257.2343°
True anomaly
102.8509°
Mean anomaly
102.8399°
Eccentric anomaly
102.8454°
Mean motion
3.81733 °/min
Orbital period
94.31 mins
BSTAR
0.000043084
Loading maneuver chart data...
Computing Atmospheric mass density...
Loading historical data...
Loading historical data...
Loading historical data...
Loading historical data...
Loading historical data...
Loading historical data...
Loading historical data...

Documentation

Showing up to 5 results
|